GW3924 Weather Reports


time (UTC)temp
F
wind
direction
speed
knots
gust
knots
rain 1hr
in
rain 24hr
in
rain mn
in
humidity
%
barometer
mb
20260906030108 81 116 0.0 0.0 0.00 0.00 0.00 82 1016.7
20260906025607 81 117 0.0 0.0 0.00 0.00 0.00 82 1016.9
20260906025106 82 102 0.0 0.0 0.00 0.00 0.00 85 1016.7
20260906024601 82 102 0.0 0.0 0.00 0.00 0.00 82 1016.6
20260906024055 82 102 0.0 0.0 0.00 0.00 0.00 81 1016.5
20260906023552 82 102 0.0 0.0 0.00 0.00 0.00 80 1016.6
20260906023052 82 102 0.0 0.0 0.00 0.00 0.00 80 1016.5
20260906022547 82 102 0.0 0.0 0.00 0.00 0.00 80 1016.5
20260906022042 82 102 0.0 0.0 0.00 0.00 0.00 80 1016.6
20260906021538 82 102 0.0 0.0 0.00 0.00 0.00 80 1016.3
20260906021036 82 102 0.0 0.0 0.00 0.00 0.00 81 1016.1
20260906020531 82 102 0.0 0.0 0.00 0.00 0.00 81 1016.1
20260906020031 82 102 0.0 0.0 0.00 0.00 0.00 81 1016.2
20260906015529 82 102 0.0 0.0 0.00 0.00 0.00 81 1016.2
20260906015024 82 102 0.0 0.0 0.00 0.00 0.00 81 1015.9
20260906014519 83 102 0.0 0.0 0.00 0.00 0.00 81 1015.8
20260906014015 83 102 0.0 0.0 0.00 0.00 0.00 80 1015.7
20260906013509 83 102 0.0 0.0 0.00 0.00 0.00 80 1015.7
20260906013000 83 102 0.0 0.0 0.00 0.00 0.00 80 1015.7
20260906012455 83 102 0.0 0.0 0.00 0.00 0.00 80 1015.6
20260906011954 84 100 0.0 0.0 0.00 0.00 0.00 79 1015.7
20260906011450 84 108 0.0 0.0 0.00 0.00 0.00 79 1015.5
20260906010944 84 108 0.0 0.0 0.00 0.00 0.00 78 1015.6
20260906010440 85 108 0.0 0.0 0.00 0.00 0.00 78 1015.5
20260906005937 86 98 0.0 0.0 0.00 0.00 0.00 76 1015.5
20260906005435 86 97 0.0 0.0 0.00 0.00 0.00 75 1015.5
20260906004928 86 138 0.0 0.0 0.00 0.00 0.00 75 1015.4
20260906004423 86 128 0.0 0.0 0.00 0.00 0.00 74 1015.2
20260906003919 87 134 0.0 0.0 0.00 0.00 0.00 75 1015.2
20260906003414 87 154 0.0 0.0 0.00 0.00 0.00 73 1015.3
20260906002909 87 134 0.0 0.0 0.00 0.00 0.00 74 1015.0
20260906002409 87 99 0.0 0.0 0.00 0.00 0.00 72 1015.1
20260906001904 88 96 0.0 0.0 0.00 0.00 0.00 70 1015.2
20260906001400 88 92 0.0 0.0 0.00 0.00 0.00 70 1015.2
20260906000859 89 91 0.0 0.0 0.00 0.00 0.00 70 1015.4
20260906000356 89 91 0.0 0.0 0.00 0.00 0.00 70 1015.4
20260905235849 90 91 0.0 0.0 0.00 0.00 0.00 68 1015.3
20260905235343 90 92 0.0 0.0 0.00 0.00 0.00 67 1015.3
20260905234839 91 91 0.0 0.0 0.00 0.00 0.00 65 1015.3
20260905234334 91 91 0.0 0.0 0.00 0.00 0.00 64 1015.5
20260905233829 92 91 0.0 0.0 0.00 0.00 0.00 63 1015.3
20260905233324 92 91 0.0 0.0 0.00 0.00 0.00 61 1015.4
20260905232823 93 91 0.0 0.0 0.00 0.00 0.00 59 1015.4
20260905232320 93 91 0.0 0.0 0.00 0.00 0.00 60 1015.3
20260905231815 93 91 0.0 0.0 0.00 0.00 0.00 58 1015.5
20260905231310 94 79 0.0 0.0 0.00 0.00 0.00 56 1015.4
20260905230806 94 83 0.0 0.0 0.00 0.00 0.00 56 1015.3
20260905230304 94 81 0.0 0.0 0.00 0.00 0.00 56 1015.5
20260905225804 95 104 0.0 0.0 0.00 0.00 0.00 55 1015.4
20260905225259 95 102 0.0 0.0 0.00 0.00 0.00 55 1015.4
20260905224758 95 66 0.0 0.9 0.00 0.00 0.00 54 1015.3
20260905224254 95 103 0.9 0.9 0.00 0.00 0.00 54 1015.1
20260905223749 96 239 0.9 1.7 0.00 0.00 0.00 53 1015.3
20260905223246 96 169 1.7 2.6 0.00 0.00 0.00 54 1015.3
20260905222741 98 74 0.0 0.0 0.00 0.00 0.00 48 1015.2
20260905222240 98 97 0.0 0.0 0.00 0.00 0.00 48 1015.1
20260905221736 99 87 0.0 0.9 0.00 0.00 0.00 47 1015.2
20260905221233 100 133 0.0 0.0 0.00 0.00 0.00 45 1015.0
20260905220729 99 230 0.0 0.9 0.00 0.00 0.00 45 1015.2
20260905220225 99 73 0.0 0.9 0.00 0.00 0.00 45 1015.1
20260905215724 100 129 0.0 0.0 0.00 0.00 0.00 44 1015.0
20260905215220 100 86 0.0 0.9 0.00 0.00 0.00 45 1015.1
20260905214716 102 75 0.0 1.7 0.00 0.00 0.00 43 1015.1
20260905214211 102 266 0.0 1.7 0.00 0.00 0.00 43 1015.3
20260905213706 102 127 0.0 1.7 0.00 0.00 0.00 43 1015.2
20260905213202 101 129 0.9 1.7 0.00 0.00 0.00 42 1015.1
20260905212657 103 158 0.0 0.0 0.00 0.00 0.00 41 1015.3
20260905212156 103 344 0.9 1.7 0.00 0.00 0.00 39 1015.3
20260905211650 104 319 0.0 0.0 0.00 0.00 0.00 42 1015.4
20260905211146 103 148 0.9 0.9 0.00 0.00 0.00 41 1015.3
20260905210643 103 255 0.0 0.9 0.00 0.00 0.00 41 1015.4
20260905210142 104 273 1.7 1.7 0.00 0.00 0.00 41 1015.5
20260905205641 103 281 0.0 2.6 0.00 0.00 0.00 40 1015.4
20260905205136 104 187 0.9 0.9 0.00 0.00 0.00 39 1015.6
20260905204630 104 223 0.0 1.7 0.00 0.00 0.00 41 1015.7
20260905204125 102 265 1.7 2.6 0.00 0.00 0.00 41 1015.5
20260905203620 103 129 0.0 2.6 0.00 0.00 0.00 43 1015.6
20260905203115 104 108 2.6 2.6 0.00 0.00 0.00 41 1015.7
20260905202610 104 288 0.9 1.7 0.00 0.00 0.00 41 1015.6
20260905202105 103 145 0.9 1.7 0.00 0.00 0.00 42 1015.7
20260905201601 102 96 0.0 1.7 0.00 0.00 0.00 45 1015.6
20260905201100 102 112 0.9 1.7 0.00 0.00 0.00 43 1015.8
20260905200556 103 164 0.0 0.9 0.00 0.00 0.00 45 1015.8
20260905200055 103 18 0.0 1.7 0.00 0.00 0.00 43 1015.8
20260905195549 104 292 0.0 1.7 0.00 0.00 0.00 41 1015.8
20260905195040 103 205 0.0 1.7 0.00 0.00 0.00 42 1016.1
20260905194539 101 275 0.9 1.7 0.00 0.00 0.00 43 1016.1
20260905194039 101 109 0.0 0.9 0.00 0.00 0.00 45 1016.3
20260905193534 100 84 0.0 1.7 0.00 0.00 0.00 45 1016.3
20260905193029 100 65 0.0 0.0 0.00 0.00 0.00 47 1016.6
20260905192524 101 127 1.7 1.7 0.00 0.00 0.00 45 1016.6
20260905192020 103 111 0.9 1.7 0.00 0.00 0.00 46 1016.8
20260905191519 103 260 0.9 1.7 0.00 0.00 0.00 43 1016.5
20260905191018 103 235 0.0 1.7 0.00 0.00 0.00 44 1016.6
20260905190516 102 260 0.9 1.7 0.00 0.00 0.00 44 1016.6
20260905190015 103 266 0.9 1.7 0.00 0.00 0.00 44 1016.8
20260905185510 102 335 0.0 1.7 0.00 0.00 0.00 45 1016.9
20260905185009 101 356 0.9 1.7 0.00 0.00 0.00 46 1017.0
20260905184504 100 199 0.9 2.6 0.00 0.00 0.00 46 1017.0
20260905184003 100 136 0.9 1.7 0.00 0.00 0.00 48 1016.9
20260905183502 100 119 0.9 1.7 0.00 0.00 0.00 48 1017.2
20260905182957 100 114 1.7 1.7 0.00 0.00 0.00 51 1017.1
20260905182457 102 165 0.9 1.7 0.00 0.00 0.00 48 1017.1
20260905181952 101 166 0.0 1.7 0.00 0.00 0.00 49 1017.1
20260905181447 99 211 0.0 1.7 0.00 0.00 0.00 52 1017.1
20260905180946 100 96 0.0 0.9 0.00 0.00 0.00 52 1017.2
20260905180441 100 98 0.9 0.9 0.00 0.00 0.00 51 1017.3
20260905175936 100 3 0.0 1.7 0.00 0.00 0.00 51 1017.4
20260905175435 99 267 1.7 1.7 0.00 0.00 0.00 52 1017.5
20260905174931 100 57 0.9 1.7 0.00 0.00 0.00 51 1017.3
20260905174426 99 256 0.0 0.9 0.00 0.00 0.00 51 1017.5
20260905173922 100 26 0.9 0.9 0.00 0.00 0.00 51 1017.5
20260905173418 98 73 0.0 0.9 0.00 0.00 0.00 52 1017.7
20260905172913 98 219 0.9 0.9 0.00 0.00 0.00 52 1017.4
20260905172410 98 105 0.0 2.6 0.00 0.00 0.00 51 1017.7
20260905171906 98 57 0.0 1.7 0.00 0.00 0.00 51 1017.5
20260905171403 97 280 1.7 1.7 0.00 0.00 0.00 53 1017.7
20260905170859 97 251 0.9 1.7 0.00 0.00 0.00 52 1017.8
20260905170355 97 220 0.0 2.6 0.00 0.00 0.00 53 1017.9
20260905165854 96 257 1.7 3.5 0.00 0.00 0.00 54 1018.0
20260905165349 96 298 0.9 2.6 0.00 0.00 0.00 55 1017.9
20260905164844 95 266 0.9 1.7 0.00 0.00 0.00 56 1018.1
20260905164339 95 134 0.9 0.9 0.00 0.00 0.00 57 1018.0
20260905163834 95 208 1.7 3.5 0.00 0.00 0.00 57 1018.2
20260905163330 95 247 1.7 2.6 0.00 0.00 0.00 57 1018.3
20260905162826 95 189 0.9 1.7 0.00 0.00 0.00 55 1018.3
20260905162320 94 293 0.9 1.7 0.00 0.00 0.00 58 1018.4
20260905161814 94 340 0.9 1.7 0.00 0.00 0.00 59 1018.3
20260905161309 94 224 0.0 2.6 0.00 0.00 0.00 58 1018.4
20260905160807 94 255 0.0 1.7 0.00 0.00 0.00 57 1018.5
20260905160301 93 152 0.0 0.9 0.00 0.00 0.00 59 1018.5
20260905155756 92 260 0.9 1.7 0.00 0.00 0.00 59 1018.6
20260905155255 92 254 0.9 3.5 0.00 0.00 0.00 61 1018.5
20260905154749 92 246 1.7 2.6 0.00 0.00 0.00 60 1018.7
20260905154245 92 266 1.7 2.6 0.00 0.00 0.00 61 1018.5
20260905153740 92 221 0.9 2.6 0.00 0.00 0.00 61 1018.6
20260905153236 91 265 1.7 1.7 0.00 0.00 0.00 62 1018.5
20260905152730 91 243 0.9 2.6 0.00 0.00 0.00 62 1018.5
20260905152225 91 297 2.6 3.5 0.00 0.00 0.00 62 1018.6
20260905151724 91 286 0.0 1.7 0.00 0.00 0.00 64 1018.7
20260905151221 90 163 0.9 1.7 0.00 0.00 0.00 64 1018.5
20260905150715 90 267 0.9 2.6 0.00 0.00 0.00 64 1018.6
20260905150214 89 328 1.7 2.6 0.00 0.00 0.00 65 1018.4
20260905145712 89 283 0.9 2.6 0.00 0.00 0.00 65 1018.6
20260905145207 89 273 1.7 1.7 0.00 0.00 0.00 65 1018.4
20260905144706 89 304 1.7 1.7 0.00 0.00 0.00 65 1018.3
20260905144206 89 281 0.9 1.7 0.00 0.00 0.00 66 1018.6
20260905143705 89 262 2.6 2.6 0.00 0.00 0.00 66 1018.4
20260905143200 88 274 1.7 2.6 0.00 0.00 0.00 68 1018.4
20260905142658 88 340 0.9 1.7 0.00 0.00 0.00 69 1018.4
20260905142153 87 264 1.7 1.7 0.00 0.00 0.00 70 1018.5
20260905141648 87 252 0.9 1.7 0.00 0.00 0.00 70 1018.5
20260905141144 87 234 1.7 1.7 0.00 0.00 0.00 71 1018.6
20260905140639 86 295 0.0 1.7 0.00 0.00 0.00 71 1018.6
20260905140138 86 280 0.9 1.7 0.00 0.00 0.00 72 1018.6
20260905135634 86 285 0.9 1.7 0.00 0.00 0.00 71 1018.6
20260905135129 86 295 0.0 1.7 0.00 0.00 0.00 73 1018.5
20260905134624 85 305 0.9 1.7 0.00 0.00 0.00 74 1018.4
20260905134122 84 264 0.0 0.9 0.00 0.00 0.00 74 1018.5
20260905133618 84 11 0.0 0.9 0.00 0.00 0.00 77 1018.6
20260905133113 83 283 0.0 0.9 0.00 0.00 0.00 78 1018.6
20260905132613 83 68 0.0 0.0 0.00 0.00 0.00 82 1018.4
20260905132107 83 75 0.0 0.0 0.00 0.00 0.00 82 1018.5
20260905131603 82 65 0.0 0.0 0.00 0.00 0.00 80 1018.3
20260905131058 82 81 0.0 0.0 0.00 0.00 0.00 81 1018.3
20260905130557 82 133 0.0 0.0 0.00 0.00 0.00 82 1018.4
20260905130052 81 160 0.0 0.0 0.00 0.00 0.00 82 1018.2
20260905125551 81 134 0.0 0.0 0.00 0.00 0.00 82 1018.2
20260905125047 80 89 0.0 0.0 0.00 0.00 0.00 82 1018.2
20260905124544 80 143 0.0 0.0 0.00 0.00 0.00 83 1018.1
20260905124039 80 127 0.0 0.0 0.00 0.00 0.00 83 1017.9
20260905123535 80 129 0.0 0.0 0.00 0.00 0.00 84 1018.1
20260905123031 79 128 0.0 0.0 0.00 0.00 0.00 85 1018.1
20260905122531 78 128 0.0 0.0 0.00 0.00 0.00 86 1018.1
20260905122026 78 87 0.0 0.0 0.00 0.00 0.00 86 1018.0
20260905121526 78 128 0.0 0.0 0.00 0.00 0.00 87 1018.1
20260905121021 77 142 0.0 0.0 0.00 0.00 0.00 88 1017.9
20260905120515 76 139 0.0 0.0 0.00 0.00 0.00 89 1018.0
20260905120010 76 143 0.0 0.0 0.00 0.00 0.00 91 1017.9
20260905115508 75 130 0.0 0.0 0.00 0.00 0.00 92 1017.9
20260905115004 75 130 0.0 0.0 0.00 0.00 0.00 93 1017.8
20260905114458 75 130 0.0 0.0 0.00 0.00 0.00 92 1017.7
20260905113956 75 131 0.0 0.0 0.00 0.00 0.00 92 1017.7
20260905113452 75 122 0.0 0.0 0.00 0.00 0.00 93 1017.6
20260905112948 75 120 0.0 0.0 0.00 0.00 0.00 93 1017.7
20260905112443 75 120 0.0 0.0 0.00 0.00 0.00 93 1017.6
20260905111938 75 120 0.0 0.0 0.00 0.00 0.00 92 1017.7
20260905111437 76 120 0.0 0.0 0.00 0.00 0.00 92 1017.7
20260905110932 76 121 0.0 0.0 0.00 0.00 0.00 91 1017.6
20260905110426 75 121 0.0 0.0 0.00 0.00 0.00 91 1017.6
20260905105926 75 119 0.0 0.0 0.00 0.00 0.00 92 1017.7
20260905105426 75 118 0.0 0.0 0.00 0.00 0.00 92 1017.6
20260905104920 75 118 0.0 0.0 0.00 0.00 0.00 92 1017.5
20260905104416 75 118 0.0 0.0 0.00 0.00 0.00 92 1017.6
20260905103915 75 118 0.0 0.0 0.00 0.00 0.00 92 1017.4
20260905103411 75 118 0.0 0.0 0.00 0.00 0.00 92 1017.5
20260905102907 75 118 0.0 0.0 0.00 0.00 0.00 92 1017.6
20260905102403 75 118 0.0 0.0 0.00 0.00 0.00 93 1017.4
20260905101858 76 118 0.0 0.0 0.00 0.00 0.00 93 1017.7
20260905101357 76 118 0.0 0.0 0.00 0.00 0.00 92 1017.6
20260905100856 76 118 0.0 0.0 0.00 0.00 0.00 91 1017.7
20260905100353 76 119 0.0 0.0 0.00 0.00 0.00 91 1017.7
20260905095851 76 119 0.0 0.0 0.00 0.00 0.00 91 1017.6
20260905095346 76 119 0.0 0.0 0.00 0.00 0.00 91 1017.5
20260905094841 76 145 0.0 0.0 0.00 0.00 0.00 91 1017.6
20260905094337 76 127 0.0 0.0 0.00 0.00 0.00 91 1017.4
20260905093836 76 122 0.0 0.0 0.00 0.00 0.00 92 1017.5
20260905093331 76 122 0.0 0.0 0.00 0.00 0.00 92 1017.5
20260905092827 76 122 0.0 0.0 0.00 0.00 0.00 92 1017.6
20260905092327 76 122 0.0 0.0 0.00 0.00 0.00 91 1017.4
20260905091822 76 122 0.0 0.0 0.00 0.00 0.00 91 1017.3
20260905091322 76 122 0.0 0.0 0.00 0.00 0.00 91 1017.4
20260905090820 75 122 0.0 0.0 0.00 0.00 0.00 91 1017.3
20260905090317 76 122 0.0 0.0 0.00 0.00 0.00 92 1017.4
20260905085816 76 122 0.0 0.0 0.00 0.00 0.00 92 1017.3
20260905085316 76 122 0.0 0.0 0.00 0.00 0.00 91 1017.5
20260905084811 76 122 0.0 0.0 0.00 0.00 0.00 91 1017.5
20260905084306 76 122 0.0 0.0 0.00 0.00 0.00 91 1017.6
20260905083801 76 122 0.0 0.0 0.00 0.00 0.00 90 1017.6
20260905083257 76 122 0.0 0.0 0.00 0.00 0.00 90 1017.7
20260905082752 76 122 0.0 0.0 0.00 0.00 0.00 90 1017.4
20260905082248 76 113 0.0 0.0 0.00 0.00 0.00 89 1017.5
20260905081747 77 108 0.0 0.0 0.00 0.00 0.00 90 1017.4
20260905081242 77 108 0.0 0.0 0.00 0.00 0.00 90 1017.4
20260905080736 77 108 0.0 0.0 0.00 0.00 0.00 89 1017.4
20260905080231 77 108 0.0 0.0 0.00 0.00 0.00 89 1017.5
20260905075730 77 108 0.0 0.0 0.00 0.00 0.00 89 1017.6
20260905075229 77 108 0.0 0.0 0.00 0.00 0.00 88 1017.6
20260905074728 77 108 0.0 0.0 0.00 0.00 0.00 88 1017.7
20260905074224 77 106 0.0 0.0 0.00 0.00 0.00 89 1017.5
20260905073719 78 106 0.0 0.0 0.00 0.00 0.00 88 1017.6
20260905073214 78 106 0.0 0.0 0.00 0.00 0.00 88 1017.6
20260905072708 78 106 0.0 0.0 0.00 0.00 0.00 87 1017.6
20260905072204 78 106 0.0 0.0 0.00 0.00 0.00 86 1017.6
20260905071700 78 136 0.0 0.0 0.00 0.00 0.00 86 1017.8
20260905071156 78 136 0.0 0.0 0.00 0.00 0.00 85 1017.7
20260905070650 78 136 0.0 0.0 0.00 0.00 0.00 86 1017.7
20260905070147 78 136 0.0 0.0 0.00 0.00 0.00 85 1017.8
20260905065645 78 136 0.0 0.0 0.00 0.00 0.00 85 1017.7
20260905065139 78 130 0.0 0.0 0.00 0.00 0.00 87 1017.7
20260905064634 78 124 0.0 0.0 0.00 0.00 0.00 87 1018.0
20260905064130 78 124 0.0 0.0 0.00 0.00 0.00 87 1017.9
20260905063628 78 124 0.0 0.0 0.00 0.00 0.00 87 1018.0
20260905063125 78 124 0.0 0.0 0.00 0.00 0.00 87 1017.8
20260905062620 78 124 0.0 0.0 0.00 0.00 0.00 88 1018.1
20260905062119 78 124 0.0 0.0 0.00 0.00 0.00 88 1018.0
20260905061614 78 124 0.0 0.0 0.00 0.00 0.00 88 1018.1
20260905061109 78 124 0.0 0.0 0.00 0.00 0.00 86 1018.2
20260905060605 78 124 0.0 0.0 0.00 0.00 0.00 86 1018.0
20260905060101 78 124 0.0 0.0 0.00 0.00 0.00 86 1018.0
20260905055559 78 124 0.0 0.0 0.00 0.00 0.00 86 1017.9
20260905055054 79 124 0.0 0.0 0.00 0.00 0.00 87 1018.1
20260905054550 79 124 0.0 0.0 0.00 0.00 0.00 88 1018.1
20260905054045 79 124 0.0 0.0 0.00 0.00 0.00 86 1018.1
20260905053544 79 124 0.0 0.0 0.00 0.00 0.00 84 1018.0
20260905053040 79 125 0.0 0.0 0.00 0.00 0.00 83 1018.1
20260905052539 79 125 0.0 0.0 0.00 0.00 0.00 84 1018.0
20260905052034 79 125 0.0 0.0 0.00 0.00 0.00 84 1018.0
20260905051530 79 125 0.0 0.0 0.00 0.00 0.00 84 1018.1
20260905051027 79 125 0.0 0.0 0.00 0.00 0.00 84 1017.9
20260905050522 79 137 0.0 0.0 0.00 0.00 0.00 84 1018.0
20260905050019 80 137 0.0 0.0 0.00 0.00 0.00 88 1018.1
20260905045513 80 335 0.0 0.0 0.00 0.00 0.00 86 1017.8
20260905045008 80 335 0.0 0.0 0.00 0.00 0.00 85 1017.8
20260905044503 80 335 0.0 0.0 0.00 0.00 0.00 85 1017.9
20260905044002 80 95 0.0 0.0 0.00 0.00 0.00 85 1017.9
20260905043501 80 105 0.0 0.0 0.00 0.00 0.00 85 1017.9
20260905042957 81 105 0.0 0.0 0.00 0.00 0.00 83 1017.8
20260905042450 81 105 0.0 0.0 0.00 0.00 0.00 82 1017.9
20260905041946 81 131 0.0 0.0 0.00 0.00 0.00 82 1017.8
20260905041442 81 98 0.0 0.0 0.00 0.00 0.00 81 1017.9
20260905040936 81 97 0.0 0.0 0.00 0.00 0.00 81 1017.7
20260905040435 81 122 0.0 0.0 0.00 0.00 0.00 81 1017.7
20260905035930 81 116 0.0 0.0 0.00 0.00 0.00 81 1017.9
20260905035425 81 126 0.0 0.0 0.00 0.00 0.00 83 1018.1
20260905034922 81 111 0.0 0.0 0.00 0.00 0.00 83 1018.2
20260905034417 81 110 0.0 0.0 0.00 0.00 0.00 84 1018.2
20260905033916 81 119 0.0 0.0 0.00 0.00 0.00 82 1017.9
20260905033411 82 119 0.0 0.0 0.00 0.00 0.00 81 1018.1
20260905032910 82 108 0.0 0.0 0.00 0.00 0.00 81 1018.0
20260905032400 82 187 0.0 0.0 0.00 0.00 0.00 78 1018.1
20260905031855 82 139 0.0 0.0 0.00 0.00 0.00 80 1018.1
20260905031351 82 139 0.0 0.0 0.00 0.00 0.00 79 1018.2
20260905030846 82 142 0.0 0.0 0.00 0.00 0.00 80 1018.3
20260905030342 82 127 0.0 0.0 0.00 0.00 0.00 80 1018.2